Regional Weather Roundup
Issued by NWS

Home | Current Version | Previous Version | Graphics & Text | Print | Product List | Glossary On
Versions: 1 2 3 4 5 6 7 8 9 10 11 12 13 14 15 16 17 18 19 20 21 22 23 24 25 26 27 28 29 30 31 32 33 34 35 36 37 38 39 40 41 42 43 44 45 46 47 48 49 50
000
ASUS43 KMPX 310601
RWRMN
WEATHER ROUNDUP FOR MINNESOTA
NATIONAL WEATHER SERVICE TWIN CITIES/CHANHASSEN MN
100 AM CDT SUN AUG 31 2014


NOTE: "FAIR" INDICATES FEW OR NO CLOUDS BELOW 12,000 FEET WITH NO
SIGNIFICANT WEATHER AND/OR OBSTRUCTIONS TO VISIBILITY. N/A MEANS
CURRENT SKY AND/OR WEATHER CONDITIONS ARE NOT AVAILABLE.

MNZ060>063-068>070-310700-
   Twin Cities Metro

CITY           SKY/WX    TMP DP  RH WIND       PRES   REMARKS
TWIN CITIES    FAIR      65  62  90 SE8       29.88S
6HR MIN TEMP:  64; 6HR MAX TEMP:  73; 6HR PCP: TRACE;

ST PAUL        FAIR      64  61  90 SE9       29.88S
CRYSTAL        FAIR      66  59  78 SE7       29.87R
BLAINE         FAIR      64  63  94 CALM      29.89R
LAKEVILLE      FAIR      61  61 100 CALM      29.88S
EDEN PRAIRIE   FAIR      64  62  93 E5        29.87R
6HR MIN TEMP:  64; 6HR MAX TEMP:  69; 6HR PCP:  0.01;

SOUTH ST PAUL  FAIR      65  61  89 CALM      29.88R
LAKE ELMO      FAIR      63  61  94 CALM      29.90R
$$
MNZ001>005-007-008-013>017-022>024-027-028-310700-
   Northwest Minnesota

CITY           SKY/WX    TMP DP  RH WIND       PRES   REMARKS
BEMIDJI        CLOUDY    62  60  93 S6        29.85R
HALLOCK        FAIR      55  54  94 SE6       29.78F
ROSEAU         FAIR      59  54  82 SE6       29.82R
WARROAD        CLOUDY    57  54  88 S3        29.83R
THIEF RVR FALL CLOUDY    63  57  82 SE8       29.81S
CROOKSTON      FAIR      63  61  94 S9        29.80F
FOSSTON        FAIR      57  55  94 SE6       29.83S
DETROIT LAKES  CLOUDY    63  61  94 SE9       29.84F
MOORHEAD       FAIR      61  61 100 S5        29.81F
PARK RAPIDS    CLOUDY    62  61  96 S5        29.86R
MAHNOMEN       MOCLDY    60  59  97 S5        29.83R
$$
MNZ006-009>011-018-025>026-310700-
   North Central Minnesota

CITY           SKY/WX    TMP DP  RH WIND       PRES   REMARKS
BAUDETTE       CLOUDY    58  56  93 SE5       29.84R
FLAG ISLAND    FAIR      64  61  88 S16       29.82R
INTL FALLS     CLOUDY    55  54  96 SE5       29.86S
6HR MIN TEMP:  45; 6HR MAX TEMP:  69;

WASKISH        CLOUDY    61  57  88 CALM      29.85R
BIG FORK       CLOUDY    61  57  88 SE3       29.87R
LONGVILLE      CLOUDY    63  63 100 SE7       29.86R
GRAND RAPIDS   CLOUDY    61  57  88 SE8       29.88R
CRANE LAKE     CLOUDY    48  46  93 CALM      29.89S
ORR            MOCLDY    57  55  94 SE3       29.85F
COOK           CLOUDY    61  57  88 SE5       29.88F
WALKER         CLOUDY    63  60  93 SE6       29.85R
$$
MNZ012-019>021-037-310700-
   Northeast Minnesota

CITY           SKY/WX    TMP DP  RH WIND       PRES   REMARKS
DULUTH         CLOUDY    60  57  89 SE8       29.90F
6HR MIN TEMP:  60; 6HR MAX TEMP:  62;

ELY            CLOUDY    57  55  94 S5        29.90F
HIBBING        CLOUDY    61  57  87 SE9       29.89F
EVELETH        CLOUDY    59  55  88 S3        29.91S
DULUTH HARBOR  FAIR      63  61  94 E9        29.90S
TWO HARBORS    CLOUDY    57  54  88 CALM      29.90S
SILVER BAY     FAIR      55  55 100 CALM      29.90S FOG
GRAND MARAIS     N/A     56  53  90 CALM      29.91S
G MARAIS ARPRT FAIR      46  45  93 CALM      29.94F FOG
$$
MNZ029>031-032-039>041-046>048-054>057-064-310700-
   West Central Minnesota

CITY           SKY/WX    TMP DP  RH WIND       PRES   REMARKS
FERGUS FALLS   FAIR      61  57  88 S7        29.83F
WHEATON        FAIR      55  54  94 SE6       29.83F FOG
MORRIS         FAIR      59  57  94 SE6       29.84S FOG
ALEXANDRIA     FAIR      60  59  96 S6        29.87R
ELBOW LAKE     FAIR      58  58  98 SE7       29.84F
WADENA         CLOUDY    61  61 100 SE7       29.85R
GLENWOOD       FOG       57  57 100 SE5       29.87R VSB 1/2
APPLETON       FAIR      61  57  88 SE6       29.83F FOG
BENSON         FAIR      61  59  94 S6        29.86R FOG
ORTONVILLE     FAIR      59  57  94 SE6       29.83F FOG
MADISON        FAIR      63  61  94 SE5       29.84F FOG
WILLMAR        FAIR      61  57  88 CALM      29.90R FOG
$$
MNZ033>034-036-042>043-049>051-058-059-310700-
   Central Minnesota

CITY           SKY/WX    TMP DP  RH WIND       PRES   REMARKS
ST CLOUD       CLOUDY    67  64  90 SE6       29.88R
6HR MIN TEMP:  66; 6HR MAX TEMP:  73;

SAUK CENTRE    FAIR      59  59 100 SE3       29.88R
PAYNESVILLE    HVY RAIN  61  61 100 E5        29.89R
AITKIN         CLOUDY    66  61  82 SE7       29.87R
PINE RIVER     FAIR      63  63 100 SE5       29.90R
BRAINERD       CLOUDY    64  61  90 SE8       29.87R
STAPLES        MOCLDY    61  61 100 S5        29.88R
LONG PRAIRIE   FOG       61  61 100 SE5       29.88R VSB 1/4
LITTLE FALLS   MOCLDY    63  61  94 SE6       29.87R
LITCHFIELD     FAIR      63  63 100 SE3       29.89R FOG
BUFFALO        CLOUDY    64  61  90 CALM      29.89R
MAPLE LAKE     MOCLDY    65  64  98 CALM      29.90R
$$
MNZ037-044-045-052-053-310700-
   East Central Minnesota

CITY           SKY/WX    TMP DP  RH WIND       PRES   REMARKS
PRINCETON      CLOUDY    66  63  88 E5        29.89R
MORA           CLOUDY    61  57  88 SE3       29.91R
CAMBRIDGE      MOCLDY    66  57  72 CALM      29.87R
RUSH CITY      FAIR      60  59  94 CALM      29.89S
MOOSE LAKE     CLOUDY    61  57  88 CALM      29.88R
HINCKLEY       MOCLDY    61  59  94 E6        29.90R
CLOQUET        CLOUDY    59  57  94 E3        29.90S
MCGREGOR       CLOUDY    63  61  94 SE5       29.89R
$$
MNZ071>073-080-081-089-090-097-098-310700-
   Southwest Minnesota

CITY           SKY/WX    TMP DP  RH WIND       PRES   REMARKS
MONTEVIDEO     FAIR      59  59 100 S5        29.86R FOG
GRANITE FALLS  FAIR      59  59  99 CALM      29.88R
CANBY          FAIR      58  57  97 SE5       29.84F FOG
MARSHALL       FAIR      61  57  88 SE6       29.84S
REDWOOD FALLS  FAIR      60  59  96 SE5       29.86R
OLIVIA         FAIR      59  57  94 SE3       29.86R
PIPESTONE      FAIR      61  57  88 SE7       29.83F
WINDOM         FAIR      63  61  94 CALM      29.88R
WORTHINGTON    FAIR      63  59  88 S6        29.87F
JACKSON        FAIR      61  59  94 S3        29.89R
TRACY          FAIR      62  60  96 CALM      29.86S
SLAYTON        FAIR      55  55  99 CALM      29.87F FOG
$$
MNZ065>067-074>077-082>085-091>093-310700-
   South Central Minnesota

CITY           SKY/WX    TMP DP  RH WIND       PRES   REMARKS
MANKATO        FAIR      64  59  82 SE7       29.87S
NEW ULM          N/A     63  63 100 SE3       29.87R
ST JAMES       FOG       61  61 100 E3        29.88R VSB 1
FAIRMONT       FAIR      61  55  82 S3        29.88R
GLENCOE        MOCLDY    65  61  85 SE5       29.88R
FARIBAULT      FAIR      66  61  82 E6        29.89R
OWATONNA       FAIR      63  61  94 E3        29.89S FOG
WASECA         FAIR      59  55  88 E5        29.90S FOG
ALBERT LEA     FOG       63  61  94 CALM      29.89S VSB<1/4
$$
MNZ078>079-086>088-094>096-310700-
   Southeast Minnesota

CITY           SKY/WX    TMP DP  RH WIND       PRES   REMARKS
ROCHESTER      FAIR      63  61  93 SE7       29.91S FOG
6HR MIN TEMP:  62; 6HR MAX TEMP:  71;

RED WING       CLOUDY    64  63  94 E3        29.88S
STANTON        FAIR      65  60  85 SE5       29.87F
DODGE CENTER   FAIR      63  63 100 E6        29.90S
WINONA         FAIR      63  61  94 CALM      29.90S
AUSTIN         FAIR      61  61 100 CALM      29.89S FOG
PRESTON        FOG       61  62 100 CALM      29.91F VSB 3/4
$$
ABBREVIATIONS USED IN REMARKS
   TC - TEMPERATURES IN CELSIUS
  WCI - WIND CHILL INDEX
   HX - HEAT INDEX
  VSB - VISIBILITY
$$



USA.gov is the U.S. government's official web portal to all federal, state and local government web resources and services.